Gallup, NM

11:57 PM MST on February 24, 2018 (GMT -0700)
Gallup Municipal

Weather History for KGUP - June, 2013

Change the Weather History Date:

Saturday, June 1, 2013

  Actual Average Record
Temperature  
Mean Temperature 62 °F -  
Max Temperature 82 °F 79 °F 91 °F (2002)
Min Temperature 42 °F 37 °F 28 °F (1988)
Degree Days  
Heating Degree Days 3    
Growing Degree Days 12 (Base 50)    
Moisture  
Dew Point 8 °F    
Average Humidity 14    
Maximum Humidity 27    
Minimum Humidity 6    
Precipitation  
Precipitation 0.00 in - - ()
Sea Level Pressure  
Sea Level Pressure 29.80 in    
Wind  
Wind Speed 4 mph (NE)    
Max Wind Speed 16 mph    
Max Gust Speed 20 mph    
Visibility 10 miles    
Events      
Averages and records for this station are not official NWS values.
T = Trace of Precipitation, MM = Missing Value Source: NWS Daily Summary

Daily Weather History Graph

Daily Weather History Graph

Search for Another Location

Airport or City:

Trip Planner

Search our weather history database for the weather conditions in past years. The results will help you decide how hot, cold, wet, or windy it might be!

Date:

Astronomy

Jun. 01, 2013 Rise Set
Actual Time 6:00 AM MDT 8:25 PM MDT
Civil Twilight 5:31 AM MDT 8:54 PM MDT
Nautical Twilight 4:55 AM MDT 9:31 PM MDT
Astronomical Twilight 4:15 AM MDT 10:11 PM MDT
Moon 1:45 AM MDT (6/1) 2:10 PM MDT (6/1)
Length of Visible Light 15h 23m
Length of Day
14h 24m
Last Quarter, 40% of the Moon is Illuminated
Jun 1
Last Quarter
Jun 8
New
Jun 16
First Quarter
Jun 23
Full
Jun 29
Last Quarter

Hourly Weather History & Observations

Time (MDT) Temp. Windchill Dew Point Humidity Pressure Visibility Wind Dir Wind Speed Gust Speed Precip Events Conditions
12:53 AM 50.0 °F - 12.0 °F 22% 29.77 in 10.0 mi Calm Calm - N/A   Clear
1:53 AM 46.9 °F - 10.9 °F 23% 29.78 in 10.0 mi Calm Calm - N/A   Clear
2:53 AM 44.1 °F 40.8 °F 9.0 °F 24% 29.82 in 10.0 mi ENE 5.8 mph - N/A   Clear
3:53 AM 43.0 °F 40.3 °F 10.0 °F 26% 29.81 in 10.0 mi NE 4.6 mph - N/A   Clear
4:53 AM 45.0 °F - 10.0 °F 24% 29.81 in 10.0 mi Calm Calm - N/A   Clear
5:53 AM 42.1 °F 39.2 °F 9.0 °F 26% 29.84 in 10.0 mi ENE 4.6 mph - N/A   Clear
6:53 AM 43.0 °F - 10.9 °F 27% 29.87 in 10.0 mi Calm Calm - N/A   Clear
7:53 AM 53.1 °F - 10.9 °F 19% 29.84 in 10.0 mi Calm Calm - N/A   Clear
8:53 AM 62.1 °F - 8.1 °F 12% 29.82 in 10.0 mi NE 6.9 mph - N/A   Clear
9:53 AM 66.0 °F - 8.1 °F 10% 29.82 in 10.0 mi Variable 4.6 mph - N/A   Clear
10:53 AM 69.1 °F - 3.9 °F 8% 29.85 in 10.0 mi NE 9.2 mph - N/A   Clear
11:53 AM 72.0 °F - 3.9 °F 7% 29.89 in 10.0 mi ENE 6.9 mph - N/A   Clear
12:53 PM 73.9 °F - 6.1 °F 7% 29.84 in 10.0 mi Variable 3.5 mph - N/A   Clear
1:53 PM 75.9 °F - 7.0 °F 7% 29.82 in 10.0 mi East 6.9 mph - N/A   Clear
2:53 PM 78.1 °F - 7.0 °F 7% 29.81 in 10.0 mi Calm Calm - N/A   Clear
3:53 PM 81.0 °F - 7.0 °F 6% 29.77 in 10.0 mi NW 11.5 mph 17.3 mph N/A   Clear
4:53 PM 82.0 °F - 8.1 °F 6% 29.72 in 10.0 mi Variable 6.9 mph - N/A   Clear
5:53 PM 81.0 °F - 7.0 °F 6% 29.73 in 10.0 mi Variable 5.8 mph - N/A   Clear
6:53 PM 82.0 °F - 8.1 °F 6% 29.71 in 10.0 mi West 16.1 mph 19.6 mph N/A   Clear
7:53 PM 75.9 °F - 7.0 °F 7% 29.71 in 10.0 mi NNE 11.5 mph - N/A   Clear
8:53 PM 70.0 °F - 7.0 °F 9% 29.72 in 10.0 mi NNE 5.8 mph - N/A   Clear
9:53 PM 60.1 °F - 6.1 °F 12% 29.79 in 9.0 mi Calm Calm - N/A   Clear
10:53 PM 54.0 °F - 6.1 °F 15% 29.82 in 10.0 mi Calm Calm - N/A   Clear
11:53 PM 55.9 °F - 8.1 °F 15% 29.78 in 10.0 mi East 3.5 mph - N/A   Clear